Crestline (CTL1, 214) Station Data

Red Flag Warning: No
Fire Weather Zone: 258
SDGE Region: North East
Lat/Lon: 33.308/-116.855

Observations

Time Wind Speed/Gust Temp(F) RH Fuel Moist Fuel Temp(F) Dewpt(F) Tmax(F) Tmin(F) Accum Precip 10-min Precip SL Press(mb)
5/24 8:20am 334 3 G 6 69° 10% - - 10° 70.3° 62.1° - - 1011.0
5/24 8:10am 332 3 G 6 65° 16% - - 16° 69.3° 62.1° - - 1013.0
5/24 8:00am 288 3 G 5 66° 16% - - 17° 69.3° 62.6° - - 1012.0
5/24 7:50am 322 2 G 4 67° 10% - - 69.3° 64.6° - - 1012.0
5/24 7:40am 297 2 G 4 67° 9% - - 69.3° 64.6° - - 1012.0
5/24 7:30am 314 2 G 5 68° 7% - - 69.3° 64.6° - - 1011.0
5/24 7:20am 326 3 G 6 69° 7% - - 69.3° 64.6° - - 1011.0
5/24 7:10am 322 3 G 5 68° 7% - - 68.9° 64.6° - - 1011.0
5/24 7:00am 331 3 G 6 68° 7% - - - 68.8° 64.6° - - 1011.0
5/24 6:50am 331 2 G 4 68° 6% - - - 68.8° 64.6° - - 1011.0
5/24 6:40am 338 3 G 8 68° 6% - - - 68.8° 64.6° - - 1011.0
5/24 6:30am 339 3 G 8 68° 6% - - - 68.7° 64.6° - - 1011.0
5/24 6:20am 322 2 G 4 68° 5% - - - 68.7° 64.6° - - 1011.0
5/24 6:10am 338 3 G 8 67° 5% - - - 68.7° 64.6° - - 1011.0
5/24 6:00am 337 3 G 8 67° 5% - - - 68.7° 64.6° - - 1011.0
5/24 5:50am 346 4 G 8 67° 5% - - - 68.7° 64.6° - - 1011.0
5/24 5:40am 349 3 G 7 67° 5% - - - 68.7° 64.6° - - 1011.0
5/24 5:30am 340 3 G 7 65° 7% - - - 68.7° 64.6° - - 1012.0
5/24 5:20am 265 1 G 2 66° 7% - - - 68.7° 64.6° - - 1012.0
5/24 5:10am 310 3 G 9 67° 5% - - - 68.7° 64.6° - - 1011.0
5/24 5:00am 346 3 G 7 67° 5% - - - 68.7° 64.6° - - 1012.0
5/24 4:50am 353 4 G 6 66° 6% - - - 68.7° 64.6° - - 1012.0
5/24 4:40am 2 4 G 6 66° 7% - - - 68.7° 64.6° - - 1012.0
5/24 4:30am 357 4 G 6 66° 7% - - - 68.7° 64.6° - - 1012.0
5/24 4:20am 348 3 G 6 66° 7% - - - 68.7° 64.6° - - 1012.0
5/24 4:10am 340 3 G 5 66° 7% - - - 68.7° 64.6° - - 1012.0
5/24 4:00am 351 3 G 4 65° 7% - - - 68.7° 64.6° - - 1013.0
5/24 3:50am 339 2 G 4 66° 6% - - - 68.7° 64.9° - - 1013.0
5/24 3:40am 342 2 G 5 66° 7% - - - 68.7° 64.9° - - 1013.0
5/24 3:30am 328 3 G 6 67° 6% - - - 68.7° 65.3° - - 1012.0
5/24 3:20am 334 3 G 7 67° 6% - - - 68.7° 65.3° - - 1012.0
5/24 3:10am 334 3 G 6 67° 5% - - - 68.7° 65.3° - - 1012.0
5/24 3:00am 348 3 G 6 67° 5% - - - 68.7° 65.3° - - 1012.0
5/24 2:50am 354 4 G 7 67° 5% - - - 68.7° 65.3° - - 1012.0
5/24 2:40am 357 4 G 7 68° 5% - - - 68.7° 65.3° - - 1012.0
5/24 2:30am 335 4 G 7 68° 5% - - - 68.6° 65.3° - - 1012.0
5/24 2:20am 337 4 G 8 68° 5% - - - 68.6° 65.3° - - 1012.0
5/24 2:10am 343 3 G 8 67° 6% - - - 68° 65.3° - - 1013.0
5/24 2:00am 347 4 G 7 67° 6% - - - 68° 65.3° - - 1013.0
5/24 1:50am 346 4 G 7 67° 7% - - - 68° 65.3° - - 1013.0
5/24 1:40am 353 4 G 6 67° 7% - - 67.6° 65.3° - - 1013.0
5/24 1:30am 353 4 G 7 67° 8% - - 67.6° 65.3° - - 1014.0
5/24 1:20am 345 4 G 7 67° 9% - - 67.6° 65.3° - - 1014.0
5/24 1:10am 343 3 G 6 67° 10% - - 67.6° 65.3° - - 1014.0
5/24 1:00am 337 4 G 8 67° 10% - - 67.5° 65.3° - - 1014.0
5/24 12:50am 332 4 G 8 66° 10% - - 67.3° 65.3° - - 1014.0
5/24 12:40am 342 3 G 7 66° 11% - - 11° 66.9° 65.3° - - 1014.0
5/24 12:30am 337 4 G 7 66° 11% - - 10° 66.9° 65.3° - - 1014.0
5/24 12:20am 338 4 G 7 66° 12% - - 13° 66.9° 65.3° - - 1015.0
5/24 12:10am 331 3 G 6 66° 11% - - 10° 66.9° 65.7° - - 1015.0
5/24 12:00am 334 3 G 7 67° 10% - - 79.7° 65.9° - - 1014.0
5/23 11:50pm 338 4 G 9 67° 11% - - 10° 79.7° 65.9° - - 1014.0
5/23 11:40pm 338 4 G 11 67° 11% - - 11° 79.7° 65.9° - - 1015.0
5/23 11:30pm 337 3 G 8 67° 12% - - 13° 79.7° 65.9° - - 1015.0
5/23 11:20pm 341 3 G 8 67° 13% - - 14° 79.7° 65.9° - - 1015.0
5/23 11:10pm 333 3 G 7 67° 13% - - 14° 79.7° 65.9° - - 1015.0
5/23 11:00pm 338 3 G 7 67° 13% - - 14° 79.7° 65.9° - - 1015.0
5/23 10:50pm 331 3 G 7 67° 13% - - 15° 79.7° 65.9° - - 1015.0
5/23 10:40pm 340 3 G 8 67° 14% - - 17° 79.7° 65.9° - - 1015.0
5/23 10:30pm 346 3 G 7 67° 15% - - 18° 79.7° 65.9° - - 1015.0
5/23 10:20pm 348 3 G 7 67° 16% - - 19° 79.7° 65.9° - - 1015.0
5/23 10:10pm 354 3 G 5 67° 16% - - 19° 79.7° 65.9° - - 1015.0
5/23 10:00pm 342 3 G 7 67° 16% - - 19° 79.7° 65.9° - - 1015.0
5/23 9:50pm 337 3 G 7 67° 16% - - 19° 79.7° 65.9° - - 1015.0
5/23 9:40pm 342 3 G 7 67° 16% - - 19° 79.7° 65.9° - - 1015.0
5/23 9:30pm 345 3 G 6 67° 16% - - 19° 79.7° 65.9° - - 1015.0
5/23 9:20pm 336 3 G 7 67° 16% - - 19° 79.7° 65.9° - - 1015.0
5/23 9:10pm 330 3 G 7 67° 16% - - 19° 79.7° 65.9° - - 1015.0
5/23 9:00pm 334 3 G 10 67° 16% - - 20° 79.7° 65.9° - - 1015.0
5/23 8:50pm 332 3 G 9 68° 16% - - 20° 79.7° 65.9° - - 1015.0
5/23 8:40pm 334 3 G 9 68° 16% - - 20° 79.7° 65.9° - - 1015.0
5/23 8:30pm 335 3 G 8 68° 17% - - 21° 79.7° 65.9° - - 1015.0
5/23 8:20pm 333 3 G 7 68° 17% - - 21° 79.7° 65.9° - - 1015.0
5/23 8:10pm 346 3 G 5 67° 18% - - 22° 79.7° 65.9° - - 1015.0
5/23 8:00pm 346 3 G 6 68° 18% - - 23° 79.7° 65.9° - - 1014.0
5/23 7:50pm 337 3 G 5 69° 19% - - 24° 79.7° 65.9° - - 1014.0
5/23 7:40pm 333 3 G 6 70° 19% - - 25° 79.7° 65.9° - - 1014.0
5/23 7:30pm 335 3 G 6 70° 19% - - 26° 79.7° 65.9° - - 1014.0
5/23 7:20pm 330 3 G 8 70° 20% - - 27° 79.7° 65.9° - - 1014.0
5/23 7:10pm 330 3 G 7 71° 20% - - 28° 79.7° 65.9° - - 1013.0
5/23 7:00pm 309 4 G 7 72° 19% - - 27° 79.7° 65.9° - - 1013.0
5/23 6:50pm 305 4 G 9 73° 19% - - 28° 79.7° 65.9° - - 1013.0
5/23 6:40pm 308 4 G 8 74° 18% - - 28° 79.7° 65.9° - - 1012.0
5/23 6:30pm 298 3 G 6 74° 18% - - 28° 79.7° 65.9° - - 1012.0
5/23 6:20pm 283 3 G 7 75° 17% - - 27° 79.7° 65.9° - - 1012.0
5/23 6:10pm 289 5 G 9 75° 16% - - 26° 79.7° 65.9° - - 1012.0
5/23 6:00pm 283 4 G 8 76° 18% - - 28° 79.7° 65.9° - - 1012.0
5/23 5:50pm 275 3 G 7 76° 22% - - 34° 79.7° 65.9° - - 1012.0
5/23 5:40pm 249 2 G 8 75° 25% - - 37° 79.7° 65.9° - - 1012.0
5/23 5:30pm 256 3 G 7 75° 25% - - 37° 79.7° 65.9° - - 1012.0
5/23 5:20pm 235 3 G 5 74° 30% - - 40° 79.7° 65.9° - - 1013.0
5/23 5:10pm 249 3 G 7 74° 33% - - 43° 79.7° 65.9° - - 1013.0
5/23 5:00pm 231 3 G 7 75° 32% - - 42° 79.7° 65.9° - - 1013.0
5/23 4:50pm 242 3 G 9 75° 26% - - 38° 79.7° 65.9° - - 1013.0
5/23 4:40pm 240 3 G 7 75° 28% - - 39° 79.7° 65.9° - - 1013.0
5/23 4:30pm 235 3 G 7 74° 34% - - 43° 79.7° 65.9° - - 1013.0
5/23 4:20pm 232 3 G 7 74° 34% - - 44° 79.7° 65.9° - - 1013.0
5/23 4:10pm 231 3 G 7 75° 35% - - 46° 79.7° 65.9° - - 1013.0
5/23 4:00pm 222 3 G 7 75° 36% - - 46° 79.7° 65.9° - - 1013.0
5/23 3:50pm 234 3 G 7 74° 40% - - 48° 79.7° 65.9° - - 1013.0
5/23 3:40pm 224 3 G 7 75° 43% - - 50° 79.7° 65.9° - - 1013.0
5/23 3:30pm 229 3 G 8 76° 30% - - 42° 79.7° 65.9° - - 1013.0
5/23 3:20pm 226 3 G 6 75° 38% - - 47° 79.7° 65.9° - - 1013.0
5/23 3:10pm 219 4 G 8 75° 39% - - 48° 79.7° 65.9° - - 1013.0
5/23 3:00pm 213 4 G 7 76° 31% - - 43° 79.7° 65.9° - - 1013.0
5/23 2:50pm 224 3 G 7 75° 42% - - 50° 79.7° 65.9° - - 1013.0
5/23 2:40pm 217 4 G 8 76° 42% - - 51° 79.7° 65.9° - - 1013.0
5/23 2:30pm 223 4 G 7 77° 37% - - 48° 79.7° 65.9° - - 1013.0
5/23 2:20pm 219 4 G 8 78° 28% - - 42° 79.7° 65.9° - - 1013.0
5/23 2:10pm 216 4 G 8 77° 28% - - 41° 79.7° 65.9° - - 1013.0
5/23 2:00pm 213 4 G 7 77° 31% - - 44° 79.7° 65.9° - - 1013.0
5/23 1:50pm 213 5 G 11 77° 29% - - 43° 79.7° 65.9° - - 1013.0
5/23 1:40pm 200 5 G 10 77° 28% - - 42° 79.7° 65.9° - - 1013.0
5/23 1:30pm 206 4 G 8 78° 30% - - 44° 79.7° 65.9° - - 1013.0
5/23 1:20pm 206 5 G 9 77° 29% - - 43° 79.7° 65.9° - - 1013.0
5/23 1:10pm 198 5 G 9 77° 32% - - 44° 79.7° 65.9° - - 1013.0
5/23 1:00pm 211 4 G 8 77° 33% - - 46° 79.7° 65.9° - - 1013.0
5/23 12:50pm 215 3 G 7 78° 30% - - 44° 79.7° 65.9° - - 1013.0
5/23 12:40pm 193 4 G 8 77° 29% - - 43° 79.7° 65.9° - - 1013.0
5/23 12:30pm 203 4 G 7 78° 29% - - 43° 79.7° 65.9° - - 1013.0
5/23 12:20pm 210 3 G 7 77° 28% - - 42° 79.7° 65.9° - - 1013.0
5/23 12:10pm 216 5 G 10 78° 28% - - 43° 79.7° 65.9° - - 1013.0
5/23 12:00pm 228 3 G 7 78° 26% - - 41° 79.6° 65.9° - - 1013.0
5/23 11:50am 214 4 G 7 78° 28% - - 43° 79.5° 65.9° - - 1013.0
5/23 11:40am 217 4 G 8 78° 25% - - 39° 79.5° 65.9° - - 1013.0
5/23 11:30am 202 3 G 7 78° 22% - - 36° 79° 65.9° - - 1013.0
5/23 11:20am 223 3 G 7 78° 22% - - 36° 79° 65.9° - - 1014.0
5/23 11:10am 194 3 G 7 78° 20% - - 34° 79° 65.9° - - 1013.0
5/23 11:00am 218 3 G 5 77° 24% - - 37° 78° 65.9° - - 1014.0
5/23 10:50am 216 3 G 6 76° 26% - - 39° 77.9° 65.9° - - 1014.0
5/23 10:40am 211 3 G 6 77° 22% - - 35° 77.9° 65.9° - - 1014.0
5/23 10:30am 197 2 G 7 77° 21% - - 33° 77.9° 65.9° - - 1014.0
5/23 10:20am 204 3 G 6 76° 23% - - 36° 77.9° 65.9° - - 1014.0
5/23 10:10am 224 3 G 6 76° 21% - - 34° 77.9° 65.9° - - 1014.0
5/23 10:00am 220 2 G 4 77° 20% - - 32° 77.9° 65.9° - - 1014.0
5/23 9:50am 208 2 G 4 77° 20% - - 32° 77.5° 65.9° - - 1014.0
5/23 9:40am 227 1 G 3 77° 20% - - 32° 77.4° 65.9° - - 1014.0
5/23 9:30am 189 2 G 4 76° 18% - - 29° 77.4° 65.9° - - 1014.0
5/23 9:20am 225 2 G 3 76° 18% - - 30° 77.4° 65.9° - - 1014.0
5/23 9:10am 209 1 G 3 77° 18% - - 30° 77.4° 65.9° - - 1013.0
5/23 9:00am 239 1 G 3 76° 16% - - 27° 77.4° 65.9° - - 1013.0
5/23 8:50am 237 1 G 2 75° 16% - - 26° 77.4° 65.9° - - 1014.0
5/23 8:40am 197 1 G 2 76° 15% - - 26° 77.4° 65.9° - - 1013.0
5/23 8:30am 210 1 G 2 75° 15% - - 24° 77.4° 65.9° - - 1014.0
5/23 8:20am 236 1 G 2 76° 17% - - 27° 77.4° 65.9° - - 1013.0
5/23 8:10am 58 0 G 1 76° 19% - - 31° 77.4° 65.9° - - 1013.0
5/23 8:00am 297 1 G 2 74° 15% - - 23° 75.4° 65.9° - - 1014.0
5/23 7:50am 279 1 G 2 75° 16% - - 25° 75.4° 65.9° - - 1014.0
5/23 7:40am 303 1 G 1 74° 16% - - 25° 75° 65.9° - - 1014.0
5/23 7:30am 342 1 G 4 73° 19% - - 28° 74.1° 65.9° - - 1014.0
5/23 7:20am 8 2 G 4 72° 20% - - 29° 72.8° 65.9° - - 1014.0
5/23 7:10am 7 2 G 4 71° 19% - - 28° 72° 65.9° - - 1015.0
5/23 7:00am 3 3 G 4 71° 20% - - 27° 71.4° 65.9° - - 1015.0
5/23 6:50am 360 3 G 4 71° 19% - - 26° 71.2° 65.9° - - 1015.0
5/23 6:40am 360 3 G 4 70° 18% - - 25° 70.9° 65.9° - - 1015.0
5/23 6:30am 358 2 G 4 70° 18% - - 24° 70.9° 65.9° - - 1015.0
5/23 6:20am 2 3 G 4 70° 18% - - 25° 70.9° 65.9° - - 1015.0
5/23 6:10am 358 2 G 3 69° 20% - - 26° 70.9° 65.9° - - 1015.0
5/23 6:00am 347 2 G 3 69° 19% - - 25° 70.9° 65.9° - - 1015.0